TimeAKDT,TemperatureF,Dew PointF,Humidity,Sea Level PressureIn,VisibilityMPH,Wind Direction,Wind SpeedMPH,Gust SpeedMPH,PrecipitationIn,Events,Conditions,WindDirDegrees,DateUTC
12:53 AM,55.0,53.1,93,29.76,10.0,Calm,Calm,-,0.00,,Overcast,0,2013-08-20 08:53:00
1:53 AM,54.0,53.1,97,29.76,10.0,Calm,Calm,-,0.00,,Overcast,0,2013-08-20 09:53:00
2:53 AM,54.0,53.1,97,29.77,10.0,Calm,Calm,-,0.01,,Overcast,0,2013-08-20 10:53:00
3:53 AM,53.1,52.0,96,29.78,10.0,West,4.6,-,N/A,,Overcast,270,2013-08-20 11:53:00
4:40 AM,53.6,51.8,94,29.78,10.0,North,3.5,-,N/A,,Overcast,10,2013-08-20 12:40:00
4:53 AM,53.1,51.1,93,29.79,10.0,Calm,Calm,-,N/A,,Overcast,0,2013-08-20 12:53:00
5:53 AM,54.0,51.1,90,29.79,10.0,Calm,Calm,-,N/A,,Overcast,0,2013-08-20 13:53:00
6:53 AM,53.1,51.1,93,29.79,10.0,Calm,Calm,-,N/A,,Overcast,0,2013-08-20 14:53:00
7:53 AM,54.0,51.1,90,29.80,10.0,East,4.6,-,N/A,,Mostly Cloudy,80,2013-08-20 15:53:00
8:53 AM,54.0,52.0,93,29.82,10.0,Calm,Calm,-,0.00,,Overcast,0,2013-08-20 16:53:00
9:53 AM,55.0,52.0,89,29.83,10.0,North,3.5,-,0.00,,Mostly Cloudy,360,2013-08-20 17:53:00
10:53 AM,55.9,53.1,90,29.83,10.0,Calm,Calm,-,N/A,,Overcast,0,2013-08-20 18:53:00
11:53 AM,61.0,53.1,75,29.83,10.0,Calm,Calm,-,N/A,,Mostly Cloudy,0,2013-08-20 19:53:00
12:53 PM,62.1,54.0,75,29.83,10.0,Calm,Calm,-,N/A,,Mostly Cloudy,0,2013-08-20 20:53:00
1:53 PM,63.0,55.0,75,29.83,10.0,NW,5.8,-,N/A,,Mostly Cloudy,320,2013-08-20 21:53:00
2:53 PM,60.1,54.0,80,29.84,4.0,Calm,Calm,-,0.01,Rain,Rain,0,2013-08-20 22:53:00
3:53 PM,59.0,55.0,87,29.84,4.0,Calm,Calm,-,0.03,Rain,Light Rain,0,2013-08-20 23:53:00
4:35 PM,59.0,55.4,88,29.84,10.0,South,3.5,-,0.00,,Overcast,170,2013-08-21 00:35:00
4:53 PM,57.9,55.0,90,29.84,9.0,South,6.9,-,0.00,Rain,Light Rain,170,2013-08-21 00:53:00
5:53 PM,57.0,55.0,93,29.83,10.0,SW,4.6,-,0.05,Rain,Light Rain,230,2013-08-21 01:53:00
6:53 PM,57.0,55.9,96,29.84,8.0,SW,6.9,-,0.02,,Overcast,230,2013-08-21 02:53:00
7:53 PM,57.9,55.0,90,29.83,10.0,Calm,Calm,-,0.00,Rain,Light Rain,0,2013-08-21 03:53:00
8:53 PM,57.0,52.0,83,29.83,10.0,South,3.5,-,0.00,,Overcast,180,2013-08-21 04:53:00
9:53 PM,57.0,52.0,83,29.84,10.0,Calm,Calm,-,N/A,,Overcast,0,2013-08-21 05:53:00
10:53 PM,57.9,51.1,78,29.84,10.0,Calm,Calm,-,N/A,,Overcast,0,2013-08-21 06:53:00
11:53 PM,57.0,51.1,81,29.84,10.0,Calm,Calm,-,N/A,,Overcast,0,2013-08-21 07:53:00